Date,TemperatureHighF,TemperatureAvgF,TemperatureLowF,DewpointHighF,DewpointAvgF,DewpointLowF,HumidityHigh,HumidityAvg,HumidityLow,PressureMaxIn,PressureMinIn,WindSpeedMaxMPH,WindSpeedAvgMPH,GustSpeedMaxMPH,PrecipitationSumIn
2013-1-12,65.7,64.7,63.9,64.0,60.9,57.5,100,88,75,29.84,29.76,10,8,16,0.00
2013-1-13,66.3,47.8,31.6,59.7,43.7,19.4,100,87,55,30.14,29.73,16,5,24,1.54
2013-1-14,34.2,29.6,25.2,29.6,23.3,19.1,92,78,68,30.35,30.11,10,4,10,0.00
2013-1-15,33.1,27.9,23.2,29.8,22.6,4.6,95,81,44,30.23,29.93,12,4,12,0.04
2013-1-16,32.4,31.2,30.4,31.6,30.2,15.2,100,96,52,30.05,29.88,7,3,7,0.00
2013-1-17,49.1,34.9,28.9,37.7,29.1,21.2,100,80,65,30.32,29.99,13,3,13,0.00
2013-1-18,48.6,33.9,21.2,37.3,25.8,17.1,88,73,65,30.47,30.23,10,4,10,0.00
2013-1-19,57.4,48.4,35.4,39.7,30.6,0.3,68,51,22,30.20,29.93,23,12,23,0.00
2013-1-20,49.1,39.0,27.0,32.2,22.3,0.9,55,52,21,30.17,30.02,15,4,15,0.00
2013-1-21,32.2,25.0,18.0,25.2,5.2,-42.4,79,43,12,30.20,30.05,28,10,28,0.00
2013-1-22,25.5,19.2,11.7,8.3,1.5,-17.9,50,46,24,30.32,30.20,12,6,12,0.00
2013-1-23,41.4,31.3,11.3,23.1,13.1,-18.6,51,47,24,30.26,29.99,14,5,14,0.00
2013-1-24,33.7,25.4,19.6,16.5,5.1,-13.2,50,43,22,30.44,30.23,13,4,13,0.00
2013-1-25,30.0,26.0,22.1,24.5,17.4,-11.0,87,72,22,30.11,29.93,8,4,8,0.00
2013-1-26,43.5,31.6,20.7,31.2,22.4,6.8,100,69,54,30.26,30.11,7,2,7,0.04
2013-1-27,44.1,33.6,23.4,37.0,26.1,15.2,86,75,62,30.26,30.05,7,3,7,0.08
2013-1-28,55.4,52.3,46.2,48.8,43.8,9.7,94,75,22,30.08,29.96,17,8,17,0.13
2013-1-29,64.8,61.5,53.6,55.0,51.4,28.6,100,70,37,29.96,29.55,25,11,25,0.00
2013-1-30,69.1,52.5,32.7,59.8,45.5,22.2,100,78,62,29.64,29.31,33,13,33,1.17
2013-1-31,38.5,31.0,19.6,28.3,19.3,-5.7,88,63,23,30.02,29.76,26,13,26,0.00
2013-2-1,25.9,16.2,7.0,14.5,6.5,-2.0,66,65,63,30.38,30.02,23,6,23,0.00
2013-2-2,39.2,33.5,18.3,27.7,23.1,8.5,100,65,63,30.23,29.91,17,6,17,0.00
2013-2-3,33.6,29.7,21.9,27.6,21.5,12.1,93,72,64,30.08,29.88,18,5,18,0.00
2013-2-4,52.9,41.5,19.4,41.2,30.8,-3.3,94,67,31,30.02,29.76,22,10,22,0.13
2013-2-5,53.8,45.7,36.3,40.2,33.4,14.6,81,62,40,29.96,29.79,17,7,17,0.13
2013-2-6,55.4,42.6,27.9,41.6,30.1,2.7,88,62,30,30.14,30.02,8,3,8,0.00
2013-2-7,70.2,55.7,35.6,53.7,40.4,2.3,98,57,24,30.02,29.79,14,5,14,0.00
2013-2-8,42.8,35.8,32.7,35.2,24.9,10.7,93,65,33,30.23,29.82,15,6,15,0.12
2013-2-9,54.0,41.8,26.4,40.2,28.5,-6.0,73,60,23,30.26,30.08,8,4,8,0.00
2013-2-10,59.4,50.5,37.4,49.1,39.0,3.8,93,67,21,30.08,29.76,28,10,28,0.16
2013-2-11,52.0,46.6,37.0,46.9,31.7,6.9,100,58,19,30.02,29.76,26,11,26,0.00
2013-2-12,56.5,44.2,27.9,42.3,30.5,-3.8,74,59,23,30.08,29.79,9,2,9,0.00
2013-2-13,43.9,37.6,32.2,31.5,26.9,1.0,81,66,22,29.85,29.67,12,4,12,0.05
2013-2-14,58.3,48.0,33.6,43.8,36.2,18.3,89,64,52,29.93,29.79,22,8,22,0.00
2013-2-15,46.9,38.0,27.0,34.6,25.1,1.6,65,61,21,30.08,29.93,17,6,17,0.00
2013-2-16,37.6,28.8,17.6,26.0,13.0,-12.9,73,53,22,30.08,29.96,18,6,18,0.00
2013-2-17,45.5,33.0,15.8,31.4,19.9,-15.2,92,59,23,30.14,30.05,12,4,12,0.00
2013-2-18,63.9,52.2,30.2,44.5,33.1,-6.1,64,49,20,30.02,29.70,34,15,34,0.04
2013-2-19,41.5,34.4,26.1,24.4,18.1,-0.6,63,51,23,30.08,29.76,29,12,29,0.17
2013-2-20,35.1,27.8,16.7,19.6,11.4,-14.8,55,50,23,30.23,30.11,13,4,13,0.00
2013-2-21,74.3,34.2,18.7,41.6,16.8,-13.2,84,51,22,30.32,29.23,18,5,26,0.08
2013-2-22,51.8,44.7,35.4,43.7,31.4,23.3,100,61,48,29.91,29.76,22,8,22,0.29
2013-2-23,51.8,39.6,28.9,36.3,25.2,-2.2,64,57,25,29.93,29.82,11,4,11,0.00
2013-2-24,56.3,41.7,22.3,38.9,27.5,-7.3,80,58,24,30.05,29.96,8,3,8,0.00
2013-2-25,60.4,40.5,28.6,39.2,24.4,-7.0,78,54,21,30.26,29.64,15,5,15,0.00
2013-2-26,65.7,44.0,23.7,50.9,38.5,-1.9,100,84,21,30.32,29.28,34,8,34,0.41
2013-2-27,65.7,35.8,32.7,47.2,31.3,2.6,100,86,20,30.32,29.58,23,10,23,0.05
2013-2-28,72.5,34.1,31.5,57.8,29.9,-1.0,99,87,22,30.29,29.73,17,8,17,0.00
2013-3-1,41.0,35.2,31.8,35.1,28.9,20.4,99,79,57,29.93,29.88,8,3,8,0.08
2013-3-2,34.5,30.7,28.4,31.8,23.7,20.5,100,75,70,30.02,29.91,12,4,12,0.00
2013-3-3,43.2,33.2,26.6,32.4,25.0,5.6,94,72,66,30.02,29.93,13,5,13,0.00
2013-3-4,47.5,41.5,27.5,35.5,26.9,18.3,72,57,42,30.02,29.82,10,4,10,0.00
2013-3-5,48.6,39.4,28.8,47.8,33.9,19.6,99,81,48,29.82,29.52,27,9,27,0.41
2013-3-6,34.2,31.3,29.7,27.1,24.1,4.7,86,75,33,30.20,29.82,26,6,26,0.00
2013-3-7,38.5,34.3,29.7,28.5,23.0,-0.3,85,65,23,30.29,30.20,7,2,7,0.05
2013-3-8,56.5,39.5,25.3,41.9,28.9,18.8,82,66,58,30.35,30.23,8,3,8,0.00
2013-3-9,65.8,48.8,34.0,49.0,35.7,16.4,65,61,16,30.23,29.93,10,4,10,0.00
2013-3-10,72.5,61.5,49.5,47.8,38.8,8.8,61,44,19,29.93,29.73,22,9,22,0.04
2013-3-11,54.1,45.7,37.4,52.2,36.3,22.3,100,71,46,29.85,29.64,25,11,25,1.17
2013-3-12,63.7,41.6,34.0,60.1,20.4,-1.0,100,45,19,30.08,29.88,20,8,20,0.00
2013-3-13,37.4,32.0,26.6,20.6,14.1,-7.0,52,48,20,30.26,29.99,20,8,20,0.00
2013-3-14,49.5,34.3,18.5,29.5,15.2,-11.4,69,48,19,30.29,30.11,14,4,14,0.00
2013-3-15,68.9,54.6,31.6,42.9,30.9,4.3,71,43,16,29.99,29.73,13,4,13,0.00
2013-3-16,72.3,61.1,46.9,44.6,35.8,12.4,46,40,15,29.91,29.64,27,10,27,0.00
2013-3-17,41.0,37.8,36.1,36.7,34.0,21.6,98,87,46,29.96,29.82,10,4,10,0.59
2013-3-18,52.2,46.6,36.1,52.2,40.7,22.5,100,81,52,29.85,29.58,18,8,18,1.17
2013-3-19,51.4,41.1,30.9,30.5,22.4,-2.6,52,47,23,30.08,29.88,23,8,23,0.00
2013-3-20,45.7,34.0,24.4,26.8,16.2,-9.1,100,48,21,30.05,29.93,28,9,28,0.00
2013-3-21,41.2,28.9,17.1,22.8,11.4,-14.1,52,48,22,29.99,29.88,14,4,14,0.00
2013-3-22,41.5,38.3,29.3,23.8,21.0,12.0,51,49,48,29.96,29.88,6,2,6,0.00
2013-3-23,61.3,49.0,36.1,38.0,26.8,0.9,100,43,22,29.93,29.70,9,4,9,0.00
2013-3-24,46.4,38.8,34.9,39.8,31.4,19.4,100,76,46,29.73,29.31,23,6,23,0.59
2013-3-25,35.4,32.7,30.7,31.8,28.0,3.7,100,84,30,29.93,29.52,24,11,24,0.08
2013-3-26,43.2,35.3,31.5,37.4,29.6,1.6,99,81,25,30.20,29.91,16,6,16,0.00
2013-3-27,50.2,38.8,24.1,39.3,26.3,-6.0,82,62,23,30.29,30.17,15,4,15,0.00
2013-3-28,57.7,44.0,26.1,47.2,33.7,-8.2,74,68,21,30.26,30.17,13,3,13,0.00
2013-3-29,50.9,44.5,36.1,42.0,35.2,0.9,93,71,21,30.23,30.11,10,3,10,0.00
2013-3-30,64.6,51.0,30.7,53.0,38.6,11.7,100,65,21,30.11,29.73,14,3,14,0.13
2013-3-31,64.0,52.7,47.1,52.9,46.8,38.5,100,82,67,29.85,29.73,14,6,14,0.13
2013-4-1,55.2,47.2,38.1,45.2,36.5,4.4,73,68,19,30.08,29.79,18,6,18,0.00
2013-4-2,56.3,43.9,29.1,38.7,23.5,-7.0,74,47,20,30.20,30.11,14,4,14,0.00
2013-4-3,56.7,46.5,29.7,26.6,19.0,-6.6,39,33,20,30.26,30.14,13,5,13,0.00
2013-4-4,53.2,47.4,37.8,24.8,19.8,1.2,38,33,21,30.08,29.91,8,2,8,0.00
2013-4-5,70.5,56.8,31.6,51.7,39.1,-2.0,71,52,22,30.02,29.91,13,4,13,0.00
2013-4-6,75.6,62.5,42.6,50.2,41.8,4.4,71,48,20,30.05,29.88,16,6,16,0.00
2013-4-7,73.6,65.4,57.4,50.0,41.6,12.9,52,44,17,29.93,29.85,21,9,21,0.00
2013-4-8,74.7,67.0,56.3,50.0,43.7,12.0,52,44,17,29.93,29.85,25,9,25,0.00
2013-4-9,83.3,69.2,58.8,58.8,49.4,27.4,62,50,14,30.05,29.91,26,8,26,0.00
2013-4-10,85.5,74.6,60.4,59.8,49.9,19.1,72,43,15,29.96,29.73,26,9,26,0.00
2013-4-11,70.9,63.1,53.1,64.2,55.2,19.1,100,79,15,29.79,29.52,15,5,15,1.05
2013-4-12,54.9,46.9,36.3,46.6,36.6,29.5,100,69,55,29.91,29.58,23,9,23,0.16
2013-4-13,63.7,51.6,33.1,44.5,35.1,8.6,100,54,32,30.02,29.93,19,6,19,0.00
2013-4-14,77.9,65.4,46.9,55.9,44.9,32.5,57,48,41,29.96,29.76,23,6,23,0.00
2013-4-15,78.3,67.6,55.6,56.4,46.0,15.5,72,47,20,29.96,29.85,13,5,13,0.00
2013-4-16,83.8,73.3,61.7,59.3,53.1,28.8,70,50,24,30.11,29.96,18,7,18,0.00
2013-4-17,89.2,71.4,61.9,67.5,54.0,41.4,97,55,41,30.11,29.93,10,3,10,0.00
2013-4-18,85.1,75.5,62.8,62.5,52.7,34.0,90,46,34,29.91,29.64,28,13,28,0.00
2013-4-19,47.8,42.5,37.6,37.1,28.7,12.5,86,59,31,30.02,29.67,23,10,23,1.17
2013-4-20,60.8,48.4,31.3,48.4,30.3,1.6,100,54,17,30.35,30.05,15,4,15,0.00
2013-4-21,67.5,53.3,36.9,46.4,34.0,1.1,76,49,21,30.38,30.23,9,4,9,0.00
2013-4-22,78.3,64.4,41.0,50.0,36.0,4.0,100,35,19,30.23,30.05,13,4,13,0.00
2013-4-23,72.7,64.0,48.0,55.9,45.8,7.6,65,53,19,30.08,29.88,18,8,18,0.00
2013-4-24,64.8,51.4,36.7,57.6,43.3,30.4,100,75,57,30.20,29.79,18,7,18,0.80
2013-4-25,64.2,51.2,31.1,50.8,37.8,12.7,100,61,44,30.32,30.17,17,5,17,0.00
2013-4-26,67.8,57.0,41.2,45.7,34.3,4.1,100,43,20,30.35,30.23,9,3,9,0.00
2013-4-27,57.9,55.3,50.7,57.2,46.1,9.9,100,76,19,30.20,29.91,13,3,13,0.33
2013-4-28,66.6,59.0,53.8,60.6,53.8,47.8,100,83,66,29.91,29.82,18,6,18,0.34
2013-4-29,72.0,62.1,52.9,58.0,51.4,45.1,100,69,56,29.96,29.88,9,3,9,0.00
2013-4-30,87.1,71.0,49.6,68.3,55.4,29.0,98,58,43,30.02,29.88,10,3,10,0.00
2013-5-1,90.3,72.0,55.8,70.6,57.0,28.8,80,60,13,30.14,29.99,10,2,10,0.00
2013-5-2,81.7,70.8,59.7,64.5,53.2,14.7,60,55,16,30.14,30.05,9,3,9,0.00
2013-5-3,81.9,71.1,61.0,64.6,55.4,25.4,77,59,24,30.02,29.85,13,3,13,0.00
2013-5-4,60.3,54.1,51.6,53.1,49.1,14.5,100,88,17,30.03,29.85,6,2,6,1.63
2013-5-5,57.9,53.4,50.4,56.0,50.9,39.8,100,92,63,29.89,29.83,9,4,9,0.37
2013-5-6,73.6,61.1,51.3,60.1,52.6,46.6,100,75,56,29.92,29.80,8,3,8,0.08
2013-5-7,80.1,66.2,53.1,67.5,57.3,40.0,100,74,60,30.00,29.92,7,2,7,0.04
2013-5-8,85.1,71.3,57.2,70.5,60.9,39.2,100,70,62,30.06,29.98,10,3,10,0.00
2013-5-9,82.4,71.1,55.0,68.8,58.7,34.6,97,65,45,30.09,29.98,14,4,14,0.09
2013-5-10,64.8,63.4,61.7,64.8,61.3,27.4,100,95,26,29.95,29.86,17,5,17,0.83
2013-5-11,66.2,58.9,52.3,64.7,53.6,35.1,100,83,46,30.06,29.92,12,4,12,0.25
2013-5-12,63.0,51.5,39.6,52.3,39.9,6.8,100,70,40,30.18,29.95,13,4,13,0.00
2013-5-13,69.3,58.5,35.8,49.1,40.1,8.5,66,51,24,30.24,30.12,13,4,13,0.00
2013-5-14,83.5,70.6,43.2,61.1,48.9,6.3,57,47,19,30.12,29.92,18,7,18,0.00
2013-5-15,87.1,78.7,63.7,63.2,53.5,19.1,49,43,13,30.03,29.92,16,8,16,0.04
2013-5-16,84.6,72.6,61.9,61.6,52.1,15.1,76,50,16,30.03,29.92,15,4,15,0.00
2013-5-17,76.5,68.5,61.9,67.3,56.6,31.1,97,68,23,30.09,30.00,9,2,9,0.05
2013-5-18,84.6,73.3,63.9,69.1,56.5,37.6,80,57,28,30.06,29.98,5,1,5,0.00
2013-5-19,92.8,78.0,62.2,71.0,51.9,36.2,91,49,17,30.03,29.92,11,3,11,0.00
2013-5-20,88.5,77.3,62.2,76.1,65.7,24.7,102,68,16,30.06,29.95,13,5,13,0.00
2013-5-21,85.1,74.3,66.0,73.2,65.5,39.9,98,75,32,29.98,29.86,20,5,20,0.04
2013-5-22,79.5,70.8,62.2,68.0,62.2,32.6,96,75,26,29.92,29.80,16,5,16,0.12
2013-5-23,73.8,64.9,59.2,64.2,57.3,52.6,97,77,70,30.06,29.89,14,4,14,0.12
2013-5-24,73.8,62.3,48.9,62.4,52.2,18.8,88,71,27,30.33,30.18,12,3,12,0.00
2013-5-25,81.0,66.5,44.1,69.8,55.8,8.6,90,70,22,30.36,30.15,7,2,7,0.00
2013-5-26,83.5,70.3,54.7,71.9,58.1,11.2,77,67,17,30.27,30.15,6,2,6,0.00
2013-5-27,86.5,75.7,57.6,74.2,63.7,16.1,80,68,19,30.15,29.98,20,6,20,0.00
2013-5-28,87.3,79.6,67.1,75.2,65.6,20.8,71,65,16,30.09,29.98,24,9,24,0.00
2013-5-29,89.6,81.1,72.7,77.2,70.0,62.7,71,69,67,30.09,30.00,13,4,13,0.00
2013-5-30,89.6,79.8,66.4,77.3,67.4,27.7,78,67,23,30.15,30.00,15,6,15,0.00
2013-5-31,80.4,74.5,68.5,71.7,65.6,30.4,91,75,23,30.06,29.95,16,6,16,0.17
2013-6-1,79.3,70.1,63.1,69.4,64.9,59.1,98,84,70,30.00,29.80,11,4,11,0.04
2013-6-2,81.9,71.9,62.6,70.3,62.5,38.8,90,73,36,29.98,29.89,10,3,10,0.21
2013-6-3,80.4,70.1,60.1,69.6,59.4,26.2,79,69,24,30.06,29.95,8,3,8,0.00
2013-6-4,86.0,73.4,53.1,73.7,61.9,27.1,81,68,27,30.12,30.00,7,2,7,0.00
2013-6-5,91.2,77.7,61.3,78.6,66.0,24.5,81,68,24,30.03,29.86,9,2,9,0.00
2013-6-6,78.1,72.0,67.5,68.6,63.8,46.8,97,76,47,29.86,29.80,8,2,8,0.37
2013-6-7,86.9,73.0,62.1,99.9,63.8,47.9,97,72,59,29.89,29.77,6,2,6,0.13
2013-6-8,86.4,73.9,61.0,74.5,63.0,40.5,93,69,46,30.03,29.89,10,3,10,0.17
2013-6-9,83.8,73.0,61.0,72.1,64.7,35.8,98,76,39,30.06,29.86,8,2,8,0.08
2013-6-10,77.0,69.0,64.2,67.8,63.9,25.6,97,85,16,30.03,29.80,14,4,14,1.00
2013-6-11,88.7,78.8,59.2,76.6,68.4,39.4,89,71,33,30.03,29.92,9,4,9,0.00
2013-6-12,92.7,84.6,71.6,79.8,73.3,43.9,95,70,35,30.00,29.83,18,6,18,0.00
2013-6-13,82.8,78.0,68.4,71.4,65.8,33.7,75,68,20,29.95,29.74,17,6,17,0.00
2013-6-14,88.7,75.1,56.3,76.4,62.7,15.4,79,67,19,30.06,29.95,10,2,10,0.00
2013-6-15,90.3,78.1,60.4,77.9,67.1,27.8,90,70,28,30.12,29.98,9,3,9,0.00
2013-6-16,86.2,75.6,67.6,74.2,66.1,31.7,89,74,26,30.09,29.98,11,3,11,0.00
2013-6-17,93.0,75.5,66.0,80.4,67.9,46.6,97,79,41,30.00,29.89,13,3,13,0.46
2013-6-18,89.1,77.2,64.4,77.1,67.5,57.3,95,73,68,29.98,29.86,13,3,13,0.16
2013-6-19,89.8,78.3,61.3,77.4,66.9,38.1,85,69,34,30.09,29.98,8,2,8,0.00
2013-6-20,94.3,81.0,65.3,80.8,68.9,27.5,80,68,24,30.18,30.09,6,1,6,0.00
2013-6-21,94.5,80.9,64.6,80.7,68.3,40.0,97,66,40,30.21,30.09,9,2,9,0.00
2013-6-22,93.7,81.9,65.7,80.4,70.6,39.5,91,69,37,30.18,30.06,10,3,10,0.00
2013-6-23,91.9,81.1,68.9,79.4,71.3,61.4,97,73,67,30.15,30.03,12,4,12,0.00
2013-6-24,82.6,73.7,68.0,72.0,66.8,40.9,97,80,31,30.18,30.06,8,2,8,0.08
2013-6-25,92.8,81.6,66.7,80.1,72.2,60.4,96,74,67,30.09,29.92,10,4,10,0.00
2013-6-26,88.9,78.3,66.4,76.6,69.6,30.6,97,76,22,30.00,29.74,34,6,34,1.26
2013-6-27,91.6,79.4,67.8,78.7,71.4,29.1,97,78,14,29.86,29.80,13,3,13,0.00
2013-6-28,91.8,80.6,71.1,78.2,68.9,39.3,83,69,30,29.80,29.65,13,3,13,0.00
2013-6-29,85.3,74.5,62.4,73.5,64.5,28.4,93,72,25,29.71,29.62,13,4,13,0.04
2013-6-30,87.1,72.1,61.9,75.2,63.3,47.2,97,75,54,29.83,29.68,8,3,8,0.00
2013-7-1,84.9,70.3,62.6,73.0,61.4,32.0,97,74,29,29.92,29.80,11,2,11,1.63
2013-7-2,84.6,74.4,61.3,72.8,64.7,51.9,97,72,68,30.06,29.89,13,4,13,0.00
2013-7-3,86.9,77.5,62.6,74.7,66.8,42.0,88,70,34,30.15,30.06,7,2,7,0.00
2013-7-4,69.6,67.7,64.4,68.4,59.2,45.4,97,77,44,30.15,30.06,5,1,5,0.93
2013-7-5,83.7,72.7,65.5,74.3,67.7,60.8,97,85,71,30.12,30.06,7,2,7,0.16
2013-7-6,76.5,69.1,64.0,67.9,64.2,57.9,97,85,73,30.15,30.06,6,2,6,1.50
2013-7-7,90.3,77.5,66.2,77.9,68.4,60.4,97,74,67,30.15,30.06,8,3,8,0.04
2013-7-8,93.2,82.6,65.7,80.4,72.2,47.5,96,71,48,30.18,30.06,9,3,9,0.00
2013-7-9,94.1,82.3,70.2,80.7,69.0,35.5,97,65,22,30.15,30.00,10,3,10,0.00
2013-7-10,92.1,76.8,68.7,79.8,71.0,45.8,97,84,36,30.03,29.89,20,3,20,1.13
2013-7-11,88.3,76.7,68.4,78.5,69.0,59.0,97,78,68,30.00,29.92,10,3,10,0.00
2013-7-12,85.3,73.9,61.3,73.2,62.7,27.0,83,69,25,30.09,30.00,13,3,13,0.00
2013-7-13,88.7,74.7,60.4,76.3,63.8,27.8,82,70,23,30.09,30.00,9,2,9,0.00
2013-7-14,97.0,82.4,66.4,83.6,72.5,41.0,99,74,38,30.21,30.09,6,2,6,0.00
2013-7-15,95.9,83.7,70.7,82.7,72.0,35.0,85,69,26,30.33,30.21,10,2,10,0.00
2013-7-16,97.5,86.0,73.0,84.2,75.5,66.8,95,72,66,30.36,30.24,7,2,7,0.00
2013-7-17,101.1,89.2,72.7,87.2,75.2,37.3,75,64,21,30.33,30.18,6,2,6,0.00
2013-7-18,97.0,85.9,71.6,83.4,74.7,46.4,94,70,38,30.21,30.03,10,2,10,0.34
2013-7-19,92.3,82.7,69.3,79.6,70.3,30.7,96,68,12,30.09,29.92,9,4,9,0.00
2013-7-20,91.6,82.0,71.1,78.6,72.0,48.4,98,72,44,29.98,29.86,12,5,12,0.00
2013-7-21,92.8,80.6,69.4,80.3,70.5,46.0,97,72,43,30.00,29.89,9,3,9,0.00
2013-7-22,81.3,75.1,69.6,73.0,67.1,51.9,97,77,53,29.89,29.80,13,3,13,0.44
2013-7-23,91.0,81.5,72.5,78.6,72.4,47.1,90,75,37,29.89,29.77,10,4,10,0.00
2013-7-24,85.3,74.5,65.1,73.3,62.7,26.4,79,68,22,29.95,29.83,8,3,8,0.00
2013-7-25,86.2,73.2,58.6,74.4,62.8,31.4,91,71,34,30.09,29.98,8,2,8,0.00
2013-7-26,89.4,75.0,59.0,76.9,65.0,31.0,96,72,34,30.09,29.98,8,2,8,0.00
2013-7-28,80.4,65.4,51.1,29.3,22.3,14.3,36,21,13,30.12,29.98,5,1,8,0.00
2013-7-29,84.6,69.3,54.0,36.3,28.0,18.8,43,24,13,30.24,30.12,6,1,7,0.00
2013-7-30,81.0,70.2,62.4,44.9,34.1,23.7,46,29,14,30.24,30.06,3,0,6,0.04
2013-7-31,76.8,69.3,64.6,61.2,42.3,32.1,84,40,21,30.09,29.95,2,0,5,0.08
2013-8-1,88.2,73.1,60.4,64.5,35.5,18.7,88,33,13,30.06,29.98,5,1,8,0.08
2013-8-2,87.1,74.1,59.7,42.5,30.3,23.3,49,22,13,30.09,29.98,5,1,7,0.08
2013-8-3,84.4,75.9,67.1,70.0,45.1,26.9,84,42,13,30.06,29.98,9,2,9,0.08
2013-8-4,85.3,73.2,63.1,73.0,61.4,18.7,80,68,13,30.15,30.06,9,3,9,0.00
2013-8-5,89.2,76.3,58.6,77.3,64.8,23.3,89,69,25,30.12,29.92,7,2,7,0.00
2013-8-6,86.9,77.7,67.8,74.7,67.2,32.4,92,72,26,29.98,29.92,7,1,7,0.00
2013-8-7,88.5,79.3,72.1,76.6,71.1,65.2,96,77,68,29.98,29.89,14,3,14,0.00
2013-8-8,88.0,77.4,72.7,76.1,71.2,34.3,97,84,16,30.00,29.89,10,3,11,0.04
2013-8-9,87.1,75.3,70.9,73.8,61.7,28.4,97,71,13,30.06,29.92,10,2,10,0.54
2013-8-10,89.1,78.1,70.2,76.8,69.9,42.8,97,77,31,30.12,30.03,6,1,6,0.13
2013-8-11,91.2,81.0,69.8,78.7,69.6,46.8,97,69,43,30.12,30.03,8,2,8,0.00
2013-8-12,87.3,73.6,67.5,75.8,63.6,25.5,97,76,13,30.09,29.92,21,3,21,0.45
2013-8-13,84.2,71.8,66.7,71.8,53.2,23.4,97,63,13,30.03,29.89,8,2,8,0.04
2013-8-14,81.3,67.0,52.5,70.2,56.8,20.7,91,71,27,30.15,30.03,8,2,8,0.00
2013-8-15,83.7,69.0,52.0,71.7,58.9,26.1,92,71,36,30.12,30.03,10,2,10,0.00
2013-8-16,88.3,73.7,57.4,76.3,62.9,27.3,89,70,31,30.15,30.06,7,2,7,0.00
2013-8-17,89.4,75.3,64.2,77.1,63.6,20.1,79,69,18,30.18,30.09,8,2,8,0.00
2013-8-18,89.8,73.6,61.2,77.4,65.0,33.7,96,76,34,30.18,30.09,6,1,6,0.00
2013-8-19,93.0,77.5,63.3,80.1,65.2,44.3,97,66,48,30.15,30.03,6,1,6,0.00
2013-8-20,94.5,78.3,65.8,80.8,67.0,41.6,97,69,40,30.15,30.06,8,1,8,0.00
2013-8-21,93.0,79.8,66.4,80.4,68.7,45.8,96,69,46,30.18,30.06,7,2,7,0.00
2013-8-22,92.8,83.3,70.5,79.9,70.0,32.8,95,68,12,30.15,30.03,8,2,8,0.00
2013-8-23,93.9,81.3,68.0,80.8,68.7,40.1,97,67,35,30.12,30.03,6,2,6,0.00
2013-8-24,94.5,81.4,65.5,81.2,71.0,32.9,98,72,12,30.24,30.15,7,2,7,0.00
2013-8-25,94.3,79.2,61.9,81.2,67.9,24.8,87,70,23,30.33,30.21,9,2,9,0.00
2013-8-26,91.2,75.0,65.1,77.3,56.5,27.4,97,59,12,30.27,30.12,8,2,8,0.00
2013-8-27,92.7,80.0,68.2,79.8,68.3,43.1,99,69,34,30.12,29.98,10,4,10,0.00
2013-8-28,94.5,82.4,70.0,81.3,72.5,55.9,96,73,58,30.03,29.95,12,4,12,0.00
2013-8-29,97.9,84.4,70.3,84.6,74.3,65.6,89,72,66,30.00,29.92,8,2,8,0.00
2013-8-30,98.6,84.2,69.6,84.8,74.3,62.8,97,73,66,30.00,29.86,9,2,9,0.00
2013-8-31,94.5,81.7,68.4,80.7,71.9,42.5,97,74,34,29.92,29.80,12,1,12,0.59
2013-9-1,86.5,74.3,67.6,74.7,67.5,62.8,92,80,68,29.89,29.77,10,2,10,1.26
2013-9-2,90.7,78.2,69.1,78.2,70.1,57.0,97,77,65,29.92,29.83,10,3,10,0.00
2013-9-3,87.4,73.6,62.1,75.6,63.6,37.9,96,72,38,30.06,29.92,10,2,10,0.00
2013-9-4,87.6,78.7,57.4,75.6,67.7,29.0,91,70,32,30.15,30.03,6,1,6,0.00
2013-9-5,91.6,76.8,59.4,78.9,64.1,35.5,97,66,40,30.21,30.12,6,1,6,0.00
2013-9-6,94.3,78.3,63.1,81.2,68.4,36.6,98,73,37,30.18,30.09,7,2,7,0.00
2013-9-7,92.7,78.9,63.5,79.8,69.9,62.1,97,75,67,30.12,29.98,8,2,8,0.00
2013-9-8,97.2,79.5,68.4,83.7,69.9,60.9,97,73,66,30.03,29.92,7,1,7,0.00
2013-9-9,95.7,82.7,68.7,82.2,72.2,42.4,98,72,38,30.06,29.98,10,3,10,0.00
2013-9-10,94.3,81.7,69.8,80.7,72.9,64.7,97,75,66,30.18,30.06,10,4,10,0.00
2013-9-11,95.9,80.3,68.9,82.7,71.4,64.7,96,75,66,30.21,30.06,15,3,15,0.00
2013-9-12,91.2,76.1,65.7,78.6,66.3,53.2,97,72,63,30.06,29.92,11,3,11,0.00
2013-9-13,77.9,64.9,52.5,66.0,54.7,23.7,93,71,24,30.06,29.95,12,4,12,0.00
2013-9-14,78.8,63.5,46.6,67.2,53.6,18.0,93,71,31,30.12,30.03,9,2,9,0.00
2013-9-15,83.3,69.6,50.5,71.7,60.3,44.4,91,73,68,30.12,30.03,14,4,14,0.00
2013-9-16,74.5,67.2,63.0,64.5,58.9,26.0,90,76,24,30.24,30.09,5,1,5,0.04
2013-9-17,83.7,69.2,55.4,71.9,59.9,49.7,85,73,67,30.27,30.15,8,2,8,0.00
2013-9-18,81.3,71.2,61.7,70.0,62.2,26.7,90,75,26,30.21,30.09,9,3,9,0.00
2013-9-19,88.0,75.6,63.9,75.9,64.6,47.4,97,69,52,30.18,30.03,11,3,11,0.00
2013-9-20,88.2,74.8,65.8,75.7,67.0,40.2,97,78,39,30.03,29.86,15,4,15,0.50
2013-9-21,77.5,65.6,57.7,65.6,56.4,39.1,97,72,44,29.92,29.77,14,4,14,1.38
2013-9-22,76.5,62.7,48.2,65.1,53.4,21.9,97,73,32,30.00,29.92,8,2,8,0.00
2013-9-23,79.9,64.8,48.6,69.0,55.2,22.9,94,72,36,30.09,29.98,7,2,7,0.00
2013-9-24,86.9,70.1,52.9,75.1,60.4,23.7,93,73,31,30.03,29.89,6,2,6,0.00
2013-9-25,88.7,72.6,62.4,76.6,63.9,36.3,98,76,37,29.92,29.86,7,1,7,0.00
2013-9-26,84.0,72.2,60.4,72.8,63.2,53.3,91,74,68,30.09,29.92,8,2,8,0.00
2013-9-27,87.1,71.5,56.1,75.1,59.2,32.7,97,66,41,30.15,30.06,6,2,6,0.00
2013-9-28,83.7,70.1,56.8,72.4,60.6,26.2,93,73,30,30.18,30.06,10,3,10,0.00
2013-9-29,69.1,62.6,55.2,61.3,55.0,30.4,100,78,38,30.12,30.00,15,3,15,0.08
2013-9-30,79.2,69.4,61.2,68.4,62.3,56.9,97,79,68,30.06,29.98,13,3,13,0.00
2013-10-1,83.7,71.4,57.7,71.7,61.2,38.7,95,71,49,30.15,30.03,12,3,12,0.00
2013-10-2,79.3,71.4,64.0,69.5,62.5,42.8,97,75,46,30.15,30.09,10,2,10,0.00
2013-10-3,88.5,73.3,66.9,76.6,67.8,61.2,97,84,68,30.12,30.03,13,2,13,0.00
2013-10-4,87.3,75.7,64.2,75.4,66.8,58.3,97,74,68,30.12,30.03,12,3,12,0.00
2013-10-5,78.1,73.6,69.4,72.7,68.6,66.0,97,85,70,30.09,29.95,5,2,8,1.30
2013-10-6,70.5,61.5,54.5,69.6,59.8,51.1,97,94,80,29.95,29.80,13,4,13,1.58
2013-10-10,80.9,65.6,53.4,69.8,57.7,47.4,97,77,68,30.21,30.09,3,1,5,0.00
2013-10-11,84.9,69.6,52.7,73.2,60.3,45.8,90,73,67,30.12,30.03,6,1,6,0.00
2013-10-12,85.5,69.5,52.0,73.2,61.2,50.2,97,76,67,30.15,30.03,6,2,6,0.00
2013-10-15,68.2,68.2,68.2,60.0,60.0,60.0,75,75,75,30.06,30.06,0,0,2,0.00
2013-10-18,65.0,56.9,49.6,51.2,44.4,29.8,100,65,40,29.70,29.46,13,5,13,0.00
2013-10-19,54.2,51.8,48.9,42.3,40.2,38.9,70,65,64,29.73,29.58,13,5,13,0.00
2013-10-20,56.7,52.7,46.4,44.3,42.2,37.1,87,68,63,29.91,29.70,8,3,12,0.00
2013-10-21,78.2,55.7,44.4,63.7,28.1,8.5,100,40,17,30.05,29.91,6,2,8,0.00
2013-10-22,83.7,56.7,36.5,68.3,32.8,8.0,88,44,16,30.08,29.98,6,1,10,0.00
2013-10-23,83.0,65.6,55.0,67.7,34.1,14.4,65,36,16,30.08,29.93,9,2,12,0.00
2013-10-24,84.5,68.8,55.8,68.0,42.6,12.4,65,44,15,30.08,29.99,9,2,13,0.00
2013-10-27,47.1,45.7,44.2,6.9,6.2,5.6,20,19,19,30.02,29.96,5,2,5,0.00
2013-10-28,56.1,46.6,38.5,43.1,27.8,4.4,70,53,19,30.02,29.93,9,3,14,0.00
2013-10-29,55.9,45.4,34.9,43.5,25.1,-0.2,67,49,21,30.02,29.79,9,4,17,0.00
2013-10-31,63.7,62.2,61.9,61.0,57.0,53.8,97,83,73,29.86,29.47,18,9,18,1.13
2013-11-1,65.7,62.6,52.2,60.7,54.0,43.4,96,74,70,29.77,29.68,11,7,13,0.04
2013-11-2,55.8,52.1,41.5,48.0,43.1,10.6,95,74,18,30.09,29.89,11,3,13,0.00